TimeCDT,TemperatureF,Dew PointF,Humidity,Sea Level PressureIn,VisibilityMPH,Wind Direction,Wind SpeedMPH,Gust SpeedMPH,PrecipitationIn,Events,Conditions,WindDirDegrees,DateUTC
12:53 AM,54.0,48.0,80,29.97,10.0,WNW,6.9,-,N/A,,Clear,300,2013-05-23 05:53:00
1:53 AM,53.1,48.0,83,29.98,10.0,NW,5.8,-,N/A,,Clear,310,2013-05-23 06:53:00
2:53 AM,53.1,48.0,83,29.99,10.0,NW,5.8,-,N/A,,Scattered Clouds,310,2013-05-23 07:53:00
3:05 AM,53.6,48.2,82,30.00,10.0,NW,6.9,-,N/A,,Mostly Cloudy,310,2013-05-23 08:05:00
3:53 AM,55.0,48.0,77,30.01,10.0,NNW,12.7,-,N/A,,Overcast,330,2013-05-23 08:53:00
4:53 AM,55.0,48.0,77,30.03,10.0,NNW,10.4,-,N/A,,Overcast,330,2013-05-23 09:53:00
5:53 AM,54.0,48.0,80,30.06,10.0,NNW,10.4,-,N/A,,Overcast,330,2013-05-23 10:53:00
6:53 AM,55.0,48.0,77,30.09,9.0,NNW,9.2,-,N/A,,Overcast,340,2013-05-23 11:53:00
7:53 AM,55.0,48.0,77,30.12,9.0,North,10.4,-,N/A,,Overcast,360,2013-05-23 12:53:00
8:33 AM,55.4,48.2,77,30.14,7.0,North,8.1,-,N/A,,Overcast,350,2013-05-23 13:33:00
8:53 AM,55.0,48.9,80,30.14,6.0,North,6.9,-,N/A,,Haze,350,2013-05-23 13:53:00
9:53 AM,55.9,48.9,77,30.16,10.0,North,9.2,-,N/A,,Overcast,350,2013-05-23 14:53:00
10:53 AM,57.9,48.9,72,30.15,10.0,North,12.7,-,N/A,,Overcast,10,2013-05-23 15:53:00
11:53 AM,61.0,50.0,67,30.15,10.0,NNE,13.8,-,N/A,,Overcast,30,2013-05-23 16:53:00
12:53 PM,62.1,50.0,65,30.17,10.0,North,8.1,-,N/A,,Overcast,350,2013-05-23 17:53:00
1:53 PM,63.0,51.1,65,30.18,10.0,Variable,4.6,-,N/A,,Overcast,0,2013-05-23 18:53:00
2:46 PM,66.2,51.8,60,30.19,10.0,Calm,Calm,-,N/A,,Overcast,0,2013-05-23 19:46:00
2:53 PM,68.0,52.0,56,30.19,10.0,Variable,4.6,-,N/A,,Overcast,0,2013-05-23 19:53:00
3:53 PM,69.1,52.0,54,30.17,10.0,East,8.1,-,N/A,,Scattered Clouds,100,2013-05-23 20:53:00
4:53 PM,71.1,51.1,49,30.16,10.0,ENE,12.7,17.3,N/A,,Clear,60,2013-05-23 21:53:00
5:53 PM,70.0,51.1,51,30.16,10.0,East,5.8,-,N/A,,Partly Cloudy,80,2013-05-23 22:53:00
6:53 PM,69.1,48.0,47,30.16,10.0,ESE,12.7,-,N/A,,Clear,120,2013-05-23 23:53:00
7:53 PM,66.9,48.0,51,30.16,10.0,East,8.1,-,N/A,,Clear,100,2013-05-24 00:53:00
8:53 PM,61.0,48.0,62,30.16,10.0,ESE,6.9,-,N/A,,Clear,120,2013-05-24 01:53:00
9:53 PM,57.9,48.0,70,30.18,10.0,East,3.5,-,N/A,,Clear,100,2013-05-24 02:53:00
10:53 PM,57.0,48.0,72,30.22,10.0,SSE,3.5,-,N/A,,Clear,150,2013-05-24 03:53:00
11:53 PM,55.9,48.0,75,30.22,10.0,Calm,Calm,-,N/A,,Clear,0,2013-05-24 04:53:00